EW3863 Ferrara IT current weather conditions

sailwx.info

Wind from 129 at 0 knots gusting 3

Air temperature 28.9° C
Dewpoint 18.3° C

Last reported at 2020-Jul-10 18:00 UTC.
Time now 2020-Jul-10 18:18 UTC

Location: N 44°49' E 011°37'.
View on Google Maps.

See reports from other nearby stations

  
Tides and Currents Weather Stations Pressure Air Temp Water Temp Dewpoint Dewpoint Depression Visibility Wind Speed Wind Dir Waves Ship Positions
date/time (UTC)wind fromknots sea level pressurealtimeterstation pressurevisibilityair tempwater tempwave heightnotes
2020-Jul-10 18:00 129 0 gusting 3 28.9
2020-Jul-10 17:55 101 1 gusting 3 28.9
2020-Jul-10 17:50 129 0 gusting 4 28.9
2020-Jul-10 17:45 098 0 gusting 5 29.4
2020-Jul-10 17:40 103 0 gusting 5 29.4
2020-Jul-10 17:35 087 1 gusting 6 29.4
2020-Jul-10 17:30 103 1 gusting 6 30.0
2020-Jul-10 17:25 123 1 gusting 4 30.0
2020-Jul-10 17:20 224 0 gusting 4 30.0
2020-Jul-10 17:15 103 0 gusting 4 30.0
2020-Jul-10 17:10 351 30.6
2020-Jul-10 17:05 139 0 gusting 5 30.6
2020-Jul-10 17:00 133 1 gusting 6 30.6
2020-Jul-10 16:55 134 0 gusting 5 30.6
2020-Jul-10 16:50 210 0 gusting 5 30.6
2020-Jul-10 16:45 173 0 gusting 3 30.6
2020-Jul-10 16:40 078 0 gusting 4 31.1
2020-Jul-10 16:35 048 0 gusting 4 31.1
2020-Jul-10 16:30 312 31.1
2020-Jul-10 16:25 122 0 gusting 5 31.1
2020-Jul-10 16:20 345 0 gusting 5 31.1
2020-Jul-10 16:15 083 1 gusting 5 31.1
2020-Jul-10 16:10 070 0 gusting 5 31.7
2020-Jul-10 16:05 157 0 gusting 3 31.7
2020-Jul-10 16:00 106 0 gusting 5 31.7
2020-Jul-10 15:55 122 1 gusting 5 31.7
2020-Jul-10 15:50 124 1 gusting 4 31.7
2020-Jul-10 15:45 100 0 gusting 4 31.7
2020-Jul-10 15:40 129 1 gusting 7 32.2
2020-Jul-10 15:35 144 1 gusting 7 32.2
2020-Jul-10 15:30 140 2 gusting 6 32.2
2020-Jul-10 15:25 105 1 gusting 6 32.2
2020-Jul-10 15:20 121 0 gusting 5 32.8
2020-Jul-10 15:15 096 0 gusting 5 32.8
2020-Jul-10 15:10 092 32.8
2020-Jul-10 15:05 122 1 gusting 4 32.8
2020-Jul-10 15:00 153 1 gusting 6 32.8
2020-Jul-10 14:55 143 1 gusting 6 32.8
2020-Jul-10 14:50 110 0 gusting 5 32.8
2020-Jul-10 14:45 089 1 gusting 5 33.3
2020-Jul-10 14:40 115 1 gusting 5 33.3
2020-Jul-10 14:30 117 0 gusting 4 33.9
2020-Jul-10 14:25 128 0 gusting 4 33.9
2020-Jul-10 14:20 222 0 gusting 3 33.9
2020-Jul-10 14:15 097 0 gusting 3 34.4
2020-Jul-10 14:10 070 0 gusting 3 34.4
2020-Jul-10 14:05 117 0 gusting 3 34.4
2020-Jul-10 14:00 225 0 gusting 2 33.9
2020-Jul-10 13:55 115 33.9
2020-Jul-10 13:50 072 0 gusting 3 33.9
2020-Jul-10 13:45 049 0 gusting 3 33.9
2020-Jul-10 13:40 116 0 gusting 3 33.9
2020-Jul-10 13:35 138 0 gusting 3 33.9
2020-Jul-10 13:30 116 0 gusting 2 33.9
2020-Jul-10 13:21 096 1 gusting 5 33.9
2020-Jul-10 13:16 127 0 gusting 4 33.9
2020-Jul-10 13:11 025 1 gusting 4 33.9
2020-Jul-10 13:05 136 33.9
2020-Jul-10 13:01 184 1 gusting 3 33.9
2020-Jul-10 12:55 238 0 gusting 4 33.9
2020-Jul-10 12:51 065 33.3
2020-Jul-10 12:48 051 1 gusting 6 33.3
2020-Jul-10 12:40 129 0 gusting 6 33.9
2020-Jul-10 12:35 108 33.9
2020-Jul-10 12:32 203 0 gusting 4 33.9
2020-Jul-10 12:25 236 33.9
2020-Jul-10 12:20 127 0 gusting 4 33.9
2020-Jul-10 12:16 001 0 gusting 3 33.9
2020-Jul-10 12:10 041 33.9
2020-Jul-10 12:05 059 0 gusting 3 33.9
2020-Jul-10 12:01 208 0 gusting 3 33.9
2020-Jul-10 11:55 087 0 gusting 1 33.3
2020-Jul-10 11:50 220 33.3
2020-Jul-10 11:46 019 0 gusting 5 33.9
2020-Jul-10 11:41 354 33.9
2020-Jul-10 11:35 134 0 gusting 6 33.9
2020-Jul-10 11:31 211 0 gusting 6 33.9
2020-Jul-10 11:25 058 33.9
2020-Jul-10 11:21 141 33.3
2020-Jul-10 11:16 011 33.3
2020-Jul-10 11:10 176 33.3
2020-Jul-10 11:05 214 33.3
2020-Jul-10 11:01 215 0 gusting 4 33.3
2020-Jul-10 10:55 148 33.3
2020-Jul-10 10:50 141 32.8
2020-Jul-10 10:46 096 0 gusting 3 33.3
2020-Jul-10 10:40 115 33.3
2020-Jul-10 10:35 018 32.8
2020-Jul-10 10:31 117 0 gusting 3 32.8
2020-Jul-10 10:25 038 0 gusting 2 32.8
2020-Jul-10 10:20 183 32.8
2020-Jul-10 10:15 174 0 gusting 2 32.8
2020-Jul-10 10:10 211 0 gusting 2 32.8
2020-Jul-10 10:05 106 0 gusting 2 32.2
2020-Jul-10 10:01 097 32.2
2020-Jul-10 09:55 024 0 gusting 4 32.2
2020-Jul-10 09:50 181 32.8
2020-Jul-10 09:45 240 32.8
2020-Jul-10 09:40 113 0 gusting 4 32.8
2020-Jul-10 09:35 215 0 gusting 4 32.8
2020-Jul-10 09:31 311 0 gusting 3 32.2
2020-Jul-10 09:25 226 1 gusting 4 32.2
2020-Jul-10 09:20 127 32.2
2020-Jul-10 09:16 106 32.2
2020-Jul-10 09:10 095 32.2
2020-Jul-10 09:05 335 32.2
2020-Jul-10 09:00 104 31.7
2020-Jul-10 08:50 113 31.7
2020-Jul-10 08:45 098 31.7
2020-Jul-10 08:40 217 0 gusting 2 31.7
2020-Jul-10 08:35 216 31.7
2020-Jul-10 08:31 117 31.7
2020-Jul-10 08:25 224 31.1
2020-Jul-10 08:20 226 0 gusting 2 31.1
2020-Jul-10 08:15 352 31.1
2020-Jul-10 08:10 141 31.1
2020-Jul-10 08:05 101 31.1
2020-Jul-10 08:01 250 30.6
2020-Jul-10 07:55 018 0 gusting 3 30.6
2020-Jul-10 07:50 168 30.6
2020-Jul-10 07:45 241 0 gusting 2 30.6
2020-Jul-10 07:40 049 30.6
2020-Jul-10 07:35 159 31.1
2020-Jul-10 07:30 105 30.6
2020-Jul-10 07:25 175 30.0
2020-Jul-10 07:20 087 29.4
2020-Jul-10 07:10 043 29.4
2020-Jul-10 07:05 091 29.4
2020-Jul-10 06:55 083 28.3
2020-Jul-10 06:50 098 28.3
2020-Jul-10 06:45 083 28.3
2020-Jul-10 06:35 006 0 gusting 2 27.2
2020-Jul-10 06:25 034 26.7
2020-Jul-10 06:20 028 0 gusting 2 27.2
2020-Jul-10 06:15 018 26.7
2020-Jul-10 06:10 013 26.1
2020-Jul-10 06:01 037 24.4
2020-Jul-10 05:55 116 24.4
2020-Jul-10 05:51 143 23.9
2020-Jul-10 05:46 143 23.9
2020-Jul-10 05:41 143 23.3
2020-Jul-10 05:35 143 23.3
2020-Jul-10 05:32 143 22.8
2020-Jul-10 05:26 143 22.8
2020-Jul-10 05:20 143 22.8
2020-Jul-10 05:18 143 22.2
2020-Jul-10 05:10 143 22.2
2020-Jul-10 05:06 143 22.2
2020-Jul-10 05:03 143 21.7
2020-Jul-10 04:55 143 21.7
2020-Jul-10 04:50 143 21.7
2020-Jul-10 04:48 143 21.7
2020-Jul-10 04:40 143 21.7
2020-Jul-10 04:35 143 21.7
2020-Jul-10 04:31 143 21.1
2020-Jul-10 04:25 143 21.1
2020-Jul-10 04:20 143 21.1
2020-Jul-10 04:17 143 21.1
2020-Jul-10 04:10 143 21.1
2020-Jul-10 04:05 143 21.1
2020-Jul-10 04:01 143 21.1
2020-Jul-10 03:55 143 21.1
2020-Jul-10 03:52 143 21.1
2020-Jul-10 03:49 143 0 gusting 1 21.1
2020-Jul-10 03:40 155 21.1
2020-Jul-10 03:36 163 21.1
2020-Jul-10 03:31 163 21.1
2020-Jul-10 03:26 163 21.1
2020-Jul-10 03:20 163 21.1
2020-Jul-10 03:16 163 21.1
2020-Jul-10 03:10 163 21.1
2020-Jul-10 03:05 163 21.1
2020-Jul-10 03:01 163 21.1
2020-Jul-10 02:55 163 21.1
2020-Jul-10 02:50 163 21.1
2020-Jul-10 02:46 163 21.1
2020-Jul-10 02:40 163 21.1
2020-Jul-10 02:35 163 21.1
2020-Jul-10 02:31 163 21.1
2020-Jul-10 02:25 163 21.1
2020-Jul-10 02:21 163 21.1
2020-Jul-10 02:16 163 21.7
2020-Jul-10 02:10 163 21.7
2020-Jul-10 02:05 163 21.7
2020-Jul-10 02:01 163 21.7
2020-Jul-10 01:56 163 21.7
2020-Jul-10 01:50 163 21.7
2020-Jul-10 01:46 163 21.7
2020-Jul-10 01:40 163 21.7
2020-Jul-10 01:35 163 21.7
2020-Jul-10 01:31 163 21.7
2020-Jul-10 01:25 163 21.7
2020-Jul-10 01:20 163 22.2
2020-Jul-10 01:15 163 22.2
2020-Jul-10 01:10 163 22.2
2020-Jul-10 01:05 163 22.2
2020-Jul-10 01:01 163 22.2
2020-Jul-10 00:55 163 22.2
2020-Jul-10 00:50 163 22.2
2020-Jul-10 00:46 163 21.7
2020-Jul-10 00:40 163 21.7
2020-Jul-10 00:35 163 22.2
2020-Jul-10 00:30 163 22.2
2020-Jul-10 00:25 163 22.2
2020-Jul-10 00:20 163 22.2
2020-Jul-10 00:16 163 22.2
2020-Jul-10 00:10 163 22.2
2020-Jul-10 00:05 163 22.2
2020-Jul-10 00:01 163 22.2
2020-Jul-09 23:55 163 22.2
2020-Jul-09 23:50 163 22.2
2020-Jul-09 23:46 163 22.2
2020-Jul-09 23:40 163 22.2
2020-Jul-09 23:35 163 22.2
2020-Jul-09 23:30 163 22.8
2020-Jul-09 23:25 163 22.8
2020-Jul-09 23:20 163 22.8
2020-Jul-09 23:15 163 22.8
2020-Jul-09 23:10 163 22.8
2020-Jul-09 23:05 163 22.8
2020-Jul-09 23:00 163 22.8
2020-Jul-09 22:55 163 22.8
2020-Jul-09 22:50 163 22.8
2020-Jul-09 22:45 163 22.8
2020-Jul-09 22:40 163 22.8
2020-Jul-09 22:35 163 22.8
2020-Jul-09 22:30 163 22.8
2020-Jul-09 22:25 163 22.8
2020-Jul-09 22:20 163 22.8
2020-Jul-09 22:15 163 22.8
2020-Jul-09 22:10 163 22.8
2020-Jul-09 22:05 163 23.3
2020-Jul-09 21:55 163 23.3
2020-Jul-09 21:50 163 23.3
2020-Jul-09 21:40 163 23.3
2020-Jul-09 21:30 101 23.9
2020-Jul-09 21:25 101 23.9
2020-Jul-09 21:20 101 23.9
2020-Jul-09 21:15 101 23.9
2020-Jul-09 21:10 101 23.9
2020-Jul-09 21:00 101 23.9
2020-Jul-09 20:55 212 23.9
2020-Jul-09 20:45 108 24.4
2020-Jul-09 20:40 093 24.4
2020-Jul-09 20:35 102 24.4
2020-Jul-09 20:25 101 24.4
2020-Jul-09 20:15 105 24.4
2020-Jul-09 20:05 139 25.0
2020-Jul-09 19:55 098 25.0
2020-Jul-09 19:50 236 25.6
2020-Jul-09 19:40 101 25.6
2020-Jul-09 19:35 100 25.6
2020-Jul-09 19:30 101 26.1
2020-Jul-09 19:25 139 26.1
2020-Jul-09 19:20 091 26.1
2020-Jul-09 19:15 136 26.1
2020-Jul-09 19:10 113 26.7
2020-Jul-09 19:05 145 26.7
2020-Jul-09 19:00 105 26.7
2020-Jul-09 18:55 104 0 gusting 2 26.7
2020-Jul-09 18:45 163 27.2
2020-Jul-09 18:40 110 27.2
2020-Jul-09 18:35 127 27.8
2020-Jul-09 18:30 123 27.8
2020-Jul-09 18:25 113 27.8
2020-Jul-09 18:20 134 27.8
2020-Jul-09 18:15 120 28.3
2020-Jul-09 18:10 089 28.3
2020-Jul-09 18:05 118 28.3
2020-Jul-09 18:00 119 28.3
2020-Jul-09 17:55 115 1 gusting 3 28.9
2020-Jul-09 17:50 131 28.9
2020-Jul-09 17:40 241 28.9
2020-Jul-09 17:30 102 29.4
2020-Jul-09 17:25 136 0 gusting 4 29.4
2020-Jul-09 17:20 129 29.4
2020-Jul-09 17:15 316 29.4
2020-Jul-09 17:10 006 30.0
2020-Jul-09 17:01 131 30.0
2020-Jul-09 16:56 001 30.6
2020-Jul-09 16:50 105 0 gusting 4 30.6
2020-Jul-09 16:46 110 30.6
2020-Jul-09 16:41 025 30.6
2020-Jul-09 16:35 151 0 gusting 5 30.6
2020-Jul-09 16:32 093 30.6
2020-Jul-09 16:25 307 30.6
2020-Jul-09 16:20 070 0 gusting 4 31.1
2020-Jul-09 16:17 127 0 gusting 6 31.1
2020-Jul-09 16:10 007 1 gusting 6 31.1
2020-Jul-09 16:06 083 0 gusting 2 31.1
2020-Jul-09 16:01 333 31.7
2020-Jul-09 15:55 100 31.7
2020-Jul-09 15:50 141 31.7
2020-Jul-09 15:46 004 31.1
2020-Jul-09 15:41 316 31.1
2020-Jul-09 15:35 224 1 gusting 4 31.7
2020-Jul-09 15:32 219 0 gusting 3 31.7
2020-Jul-09 15:25 233 31.7
2020-Jul-09 15:20 128 31.7
2020-Jul-09 15:16 224 31.1
2020-Jul-09 15:10 232 0 gusting 2 31.1
2020-Jul-09 15:06 220 31.7
2020-Jul-09 15:02 234 0 gusting 3 31.7
2020-Jul-09 14:55 217 0 gusting 3 31.7
2020-Jul-09 14:50 214 0 gusting 2 31.7
2020-Jul-09 14:46 198 31.7
2020-Jul-09 14:40 188 32.2
2020-Jul-09 14:36 208 0 gusting 2 32.2
2020-Jul-09 14:32 215 32.2
2020-Jul-09 14:25 186 32.2
2020-Jul-09 14:20 220 0 gusting 2 32.2
2020-Jul-09 14:15 198 32.2
2020-Jul-09 14:10 182 31.7
2020-Jul-09 14:05 134 1 gusting 4 32.2
2020-Jul-09 14:02 160 32.2
2020-Jul-09 13:55 209 1 gusting 4 32.2
2020-Jul-09 13:50 109 32.2
2020-Jul-09 13:46 115 32.2
2020-Jul-09 13:41 096 32.2
2020-Jul-09 13:35 342 0 gusting 3 32.2
2020-Jul-09 13:31 212 1 gusting 3 32.2
2020-Jul-09 13:25 234 0 gusting 3 32.2
2020-Jul-09 13:20 217 0 gusting 2 32.2
2020-Jul-09 13:15 185 32.2
2020-Jul-09 13:10 036 0 gusting 4 32.2
2020-Jul-09 13:05 141 31.7
2020-Jul-09 13:01 008 31.7
2020-Jul-09 12:55 212 31.1
2020-Jul-09 12:50 064 0 gusting 4 31.1
2020-Jul-09 12:45 006 0 gusting 5 31.1
2020-Jul-09 12:40 058 2 gusting 5 31.7
2020-Jul-09 12:35 037 31.7
2020-Jul-09 12:30 124 0 gusting 4 31.7
2020-Jul-09 12:25 015 31.7
2020-Jul-09 12:20 122 0 gusting 6 32.2
2020-Jul-09 12:16 187 32.2
2020-Jul-09 12:10 221 32.2
2020-Jul-09 12:05 193 0 gusting 2 31.7
2020-Jul-09 12:00 101 0 gusting 4 31.1
2020-Jul-09 11:55 054 1 gusting 4 31.1
2020-Jul-09 11:50 107 31.1
2020-Jul-09 11:40 339 1 gusting 4 31.7
2020-Jul-09 11:35 238 31.7
2020-Jul-09 11:31 100 0 gusting 4 32.2
2020-Jul-09 11:25 113 32.2
2020-Jul-09 11:20 037 32.2
2020-Jul-09 11:16 129 32.2
2020-Jul-09 11:10 225 31.7
2020-Jul-09 11:05 237 0 gusting 2 31.1
2020-Jul-09 11:00 355 31.1
2020-Jul-09 10:55 203 0 gusting 3 31.1
2020-Jul-09 10:50 110 0 gusting 3 31.1
2020-Jul-09 10:45 123 0 gusting 3 31.1
2020-Jul-09 10:40 214 0 gusting 3 30.6
2020-Jul-09 10:35 119 0 gusting 3 30.6
2020-Jul-09 10:31 105 30.6
2020-Jul-09 10:25 034 30.6
2020-Jul-09 10:20 124 0 gusting 6 30.0
2020-Jul-09 10:15 065 1 gusting 6 30.0
2020-Jul-09 10:10 122 0 gusting 2 30.0
2020-Jul-09 10:05 022 30.0
2020-Jul-09 10:00 023 30.0
2020-Jul-09 09:55 016 30.0
2020-Jul-09 09:50 102 0 gusting 4 30.0
2020-Jul-09 09:46 122 0 gusting 4 30.0
2020-Jul-09 09:40 050 1 gusting 4 30.0
2020-Jul-09 09:35 032 0 gusting 4 30.6
2020-Jul-09 09:30 139 30.0
2020-Jul-09 09:25 120 29.4
2020-Jul-09 09:20 117 0 gusting 4 29.4
2020-Jul-09 09:15 041 0 gusting 4 29.4
2020-Jul-09 09:10 027 0 gusting 3 30.6
2020-Jul-09 09:05 095 30.6
2020-Jul-09 09:00 098 30.6
2020-Jul-09 08:55 136 30.0
2020-Jul-09 08:50 157 29.4
2020-Jul-09 08:40 120 28.9
2020-Jul-09 08:35 142 28.9
2020-Jul-09 08:25 226 28.3
2020-Jul-09 08:20 226 0 gusting 2 28.3
2020-Jul-09 08:15 010 0 gusting 2 28.3
2020-Jul-09 08:10 140 28.3
2020-Jul-09 08:05 035 28.3
2020-Jul-09 08:00 108 27.8
2020-Jul-09 07:55 095 27.2
2020-Jul-09 07:50 026 1 gusting 3 26.7
2020-Jul-09 07:45 027 0 gusting 3 26.7
2020-Jul-09 07:40 027 26.1
2020-Jul-09 07:31 037 1 gusting 5 26.7
2020-Jul-09 07:25 193 26.1
2020-Jul-09 07:21 033 1 gusting 4 25.6
2020-Jul-09 07:17 012 0 gusting 2 26.1
2020-Jul-09 07:10 122 26.1
2020-Jul-09 07:05 122 0 gusting 2 26.1
2020-Jul-09 07:03 171 25.6
2020-Jul-09 06:55 155 25.6
2020-Jul-09 06:51 019 25.6
2020-Jul-09 06:46 217 25.0
2020-Jul-09 06:40 184 24.4
2020-Jul-09 06:35 210 24.4
2020-Jul-09 06:31 115 23.9
2020-Jul-09 06:25 110 23.9
2020-Jul-09 06:20 120 23.3
2020-Jul-09 06:17 136 22.8
2020-Jul-09 06:10 196 22.8
2020-Jul-09 06:06 209 22.2
2020-Jul-09 06:01 228 21.7
2020-Jul-09 05:55 167 21.1
2020-Jul-09 05:50 124 21.1
2020-Jul-09 05:45 124 20.6
2020-Jul-09 05:40 138 20.6
2020-Jul-09 05:35 231 20.6
2020-Jul-09 05:31 144 20.6
2020-Jul-09 05:25 144 20.0
2020-Jul-09 05:20 144 20.0
2020-Jul-09 05:16 171 20.0
2020-Jul-09 05:10 171 19.4
2020-Jul-09 05:05 171 19.4
2020-Jul-09 05:01 171 19.4
2020-Jul-09 04:55 178 19.4
2020-Jul-09 04:50 221 18.9
2020-Jul-09 04:45 221 18.9
2020-Jul-09 04:40 221 18.9
2020-Jul-09 04:35 221 18.9
2020-Jul-09 04:31 221 18.9
2020-Jul-09 04:25 221 18.9
2020-Jul-09 04:20 221 18.9
2020-Jul-09 04:15 221 18.9
2020-Jul-09 04:10 221 18.9
2020-Jul-09 04:05 221 18.9
2020-Jul-09 04:01 222 18.9
2020-Jul-09 03:55 221 18.9
2020-Jul-09 03:50 221 18.9
2020-Jul-09 03:46 221 18.9
2020-Jul-09 03:40 221 18.9
2020-Jul-09 03:35 221 18.9
2020-Jul-09 03:30 221 18.9
2020-Jul-09 03:25 222 18.9
2020-Jul-09 03:20 221 18.9
2020-Jul-09 03:15 221 18.9
2020-Jul-09 03:10 221 18.9
2020-Jul-09 03:05 222 18.9
2020-Jul-09 03:01 221 18.9
2020-Jul-09 02:55 221 18.9
2020-Jul-09 02:50 221 18.9
2020-Jul-09 02:46 221 18.9
2020-Jul-09 02:40 221 18.9
2020-Jul-09 02:35 222 18.9
2020-Jul-09 02:30 222 18.9
2020-Jul-09 02:25 222 18.9
2020-Jul-09 02:20 221 18.9
2020-Jul-09 02:15 221 18.9
2020-Jul-09 02:10 221 18.9
2020-Jul-09 02:05 221 18.3
2020-Jul-09 02:00 221 18.9
2020-Jul-09 01:55 221 18.9
2020-Jul-09 01:50 222 18.9
2020-Jul-09 01:45 221 18.9
2020-Jul-09 01:40 221 18.9
2020-Jul-09 01:35 221 18.9
2020-Jul-09 01:30 221 18.9
2020-Jul-09 01:25 221 18.9
2020-Jul-09 01:20 221 18.9
2020-Jul-09 01:15 222 18.9
2020-Jul-09 01:10 221 18.9
2020-Jul-09 01:05 221 18.9
2020-Jul-09 00:55 221 18.9
2020-Jul-09 00:45 221 18.9
2020-Jul-09 00:40 221 19.4
2020-Jul-09 00:35 221 19.4
2020-Jul-09 00:25 221 19.4
2020-Jul-09 00:20 221 19.4
2020-Jul-09 00:10 221 19.4
2020-Jul-09 00:05 221 19.4
2020-Jul-09 00:00 221 19.4
2020-Jul-08 23:55 221 20.0
2020-Jul-08 23:50 221 20.0
2020-Jul-08 23:40 221 20.0
2020-Jul-08 23:35 221 20.0
2020-Jul-08 23:25 221 20.0
2020-Jul-08 23:20 221 20.0
2020-Jul-08 23:15 217 20.6
2020-Jul-08 23:10 216 20.6
2020-Jul-08 23:05 216 20.6
2020-Jul-08 23:00 216 20.6
2020-Jul-08 22:51 216 20.6
2020-Jul-08 22:46 211 20.6
2020-Jul-08 22:40 211 20.6
2020-Jul-08 22:36 207 20.6
2020-Jul-08 22:31 217 20.6
2020-Jul-08 22:25 217 20.6
2020-Jul-08 22:20 214 20.6
2020-Jul-08 22:16 237 20.6
2020-Jul-08 22:11 219 20.6
2020-Jul-08 22:06 219 21.1
2020-Jul-08 22:01 115 21.1
2020-Jul-08 21:55 115 21.1
2020-Jul-08 21:51 115 21.1
2020-Jul-08 21:46 115 21.1
2020-Jul-08 21:40 109 21.1
2020-Jul-08 21:35 109 21.1
2020-Jul-08 21:32 110 21.1
2020-Jul-08 21:26 110 21.1
2020-Jul-08 21:20 110 21.1
2020-Jul-08 21:18 110 21.1
2020-Jul-08 21:10 101 21.1
2020-Jul-08 21:05 112 21.7
2020-Jul-08 21:02 101 21.7
2020-Jul-08 20:55 101 21.7
2020-Jul-08 20:50 101 21.7
2020-Jul-08 20:46 101 21.7
2020-Jul-08 20:40 146 21.7
2020-Jul-08 20:35 086 22.2
2020-Jul-08 20:31 136 22.2
2020-Jul-08 20:25 172 22.2
2020-Jul-08 20:20 235 22.2
2020-Jul-08 20:16 120 22.2
2020-Jul-08 20:11 127 22.2
2020-Jul-08 20:06 121 22.8
2020-Jul-08 20:01 115 22.8
2020-Jul-08 19:56 122 22.8
2020-Jul-08 19:51 122 22.8
2020-Jul-08 19:46 126 22.8
2020-Jul-08 19:40 131 23.3
2020-Jul-08 19:36 127 23.3
2020-Jul-08 19:34 191 23.3
2020-Jul-08 19:25 150 23.3
2020-Jul-08 19:20 126 23.9
2020-Jul-08 19:16 108 0 gusting 2 23.9
2020-Jul-08 19:11 209 23.9
2020-Jul-08 19:06 131 24.4
2020-Jul-08 19:01 034 24.4
2020-Jul-08 18:55 342 24.4
2020-Jul-08 18:51 119 24.4
2020-Jul-08 18:46 114 25.0
2020-Jul-08 18:41 233 25.0
2020-Jul-08 18:35 129 25.0
2020-Jul-08 18:31 111 25.0
2020-Jul-08 18:25 120 25.6
2020-Jul-08 18:20 106 25.6
2020-Jul-08 18:17 124 25.6
2020-Jul-08 18:10 144 25.6
2020-Jul-08 18:06 115 0 gusting 2 25.6
2020-Jul-08 18:01 003 26.1